Location: Observatoire
(46.1952°N, 5.3391°E)
Time: 23:12:55
(UTC+01:00)

Courier 1B Rocket - Pass Details

Date: 20 February 2026
Orbit: 920 x 1201 km, 28.2° (Epoch: 11 March)

Event Time Altitude Azimuth Distance (km) Brightness Sun altitude
Rises 20:33:21 0° 234° (SW) 3,544 8.5 -25.1°
Reaches altitude 10° 20:37:10 10° 211° (SSW) 2,615 7.5 -25.7°
Maximum altitude 20:40:28 15° 179° (S) 2,310 6.8 -26.3°
Enters shadow 20:40:31 15° 178° (S) 2,310 6.8 -26.3°
Drops below altitude 10° 20:43:49 10° 147° (SSE) 2,671 - -26.9°
Sets 20:47:47 0° 125° (SE) 3,668 - -27.5°
